Station Historical Data
Daily Summary for October 17, 2017 Units:  English    Metric   Both
« Previous Day
Next Day »
Daily Weekly Monthly Yearly Custom
  High: Low: Average:
Temperature: 74.6 °F 59.2 °F 64.7 °F
Dew Point: 37.1 °F 22.5 °F 31.1 °F
Humidity: 37 % 15 % 29 %
Wind Speed: 12.0 mph 0.0 mph 2.7 mph
Wind Gust: 18.0 mph - -
Wind:- - SE
Pressure: 30.14 in 30.06 in -
Precipitation: 0.00 in    
Historical Graphs
 
 
Tabular Data for October 17, 2017
Time Temperature Dew Point Pressure Wind Wind Speed Wind Gust Humidity Rainfall Rate (Hourly) solar
00:00 62.4 °F 30.6 °F 30.13 in East 6.0 mph 12.0 mph 30 % 0.00 in 0.00 W/m2
00:05 62.3 °F 30.5 °F 30.13 in ESE 8.0 mph 12.0 mph 30 % 0.00 in 0.00 W/m2
00:10 62.2 °F 30.4 °F 30.13 in East 9.0 mph 13.0 mph 30 % 0.00 in 0.00 W/m2
00:15 62.1 °F 30.3 °F 30.12 in ESE 2.0 mph 13.0 mph 30 % 0.00 in 0.00 W/m2
00:20 62.1 °F 30.3 °F 30.12 in Calm   17.0 mph 30 % 0.00 in 0.00 W/m2
00:25 62.1 °F 29.5 °F 30.12 in ESE 6.0 mph 15.0 mph 29 % 0.00 in 0.00 W/m2
00:30 62.0 °F 30.2 °F 30.12 in ESE 9.0 mph 14.0 mph 30 % 0.00 in 0.00 W/m2
00:35 62.0 °F 30.2 °F 30.12 in ESE 8.0 mph 15.0 mph 30 % 0.00 in 0.00 W/m2
00:40 62.0 °F 29.4 °F 30.12 in ESE 12.0 mph 18.0 mph 29 % 0.00 in 0.00 W/m2
00:45 62.0 °F 29.4 °F 30.12 in ESE 11.0 mph 15.0 mph 29 % 0.00 in 0.00 W/m2
00:50 61.9 °F 29.3 °F 30.12 in East 2.0 mph 14.0 mph 29 % 0.00 in 0.00 W/m2
00:55 61.9 °F 29.3 °F 30.12 in ESE 1.0 mph 14.0 mph 29 % 0.00 in 0.00 W/m2
01:00 61.8 °F 29.2 °F 30.12 in ESE 8.0 mph 14.0 mph 29 % 0.00 in 0.00 W/m2
01:05 61.8 °F 29.2 °F 30.12 in ESE 2.0 mph 13.0 mph 29 % 0.00 in 0.00 W/m2
01:10 61.7 °F 29.1 °F 30.12 in ESE 6.0 mph 14.0 mph 29 % 0.00 in 0.00 W/m2
01:15 61.7 °F 29.1 °F 30.12 in ESE 6.0 mph 14.0 mph 29 % 0.00 in 0.00 W/m2
01:20 61.6 °F 29.1 °F 30.12 in ESE 11.0 mph 13.0 mph 29 % 0.00 in 0.00 W/m2
01:25 61.6 °F 29.1 °F 30.12 in ESE 5.0 mph 13.0 mph 29 % 0.00 in 0.00 W/m2
01:30 61.6 °F 29.1 °F 30.12 in East 11.0 mph 16.0 mph 29 % 0.00 in 0.00 W/m2
01:35 61.6 °F 29.1 °F 30.12 in ESE 4.0 mph 16.0 mph 29 % 0.00 in 0.00 W/m2
01:40 61.6 °F 29.1 °F 30.12 in ESE 9.0 mph 14.0 mph 29 % 0.00 in 0.00 W/m2
01:45 61.5 °F 29.0 °F 30.12 in ESE 4.0 mph 15.0 mph 29 % 0.00 in 0.00 W/m2
01:50 61.4 °F 28.9 °F 30.12 in ESE 8.0 mph 13.0 mph 29 % 0.00 in 0.00 W/m2
01:55 61.4 °F 28.0 °F 30.12 in ESE 5.0 mph 14.0 mph 28 % 0.00 in 0.00 W/m2
02:00 61.4 °F 28.0 °F 30.12 in ESE 6.0 mph 14.0 mph 28 % 0.00 in 0.00 W/m2
02:05 61.4 °F 28.0 °F 30.11 in ESE 7.0 mph 7.0 mph 28 % 0.00 in 0.00 W/m2
02:10 61.4 °F 28.0 °F 30.11 in ESE 2.0 mph 14.0 mph 28 % 0.00 in 0.00 W/m2
02:15 61.3 °F 27.9 °F 30.11 in East 9.0 mph 14.0 mph 28 % 0.00 in 0.00 W/m2
02:20 61.3 °F 28.8 °F 30.12 in ESE 9.0 mph 15.0 mph 29 % 0.00 in 0.00 W/m2
02:25 61.3 °F 28.8 °F 30.12 in ESE 6.0 mph 15.0 mph 29 % 0.00 in 0.00 W/m2
02:30 61.3 °F 27.9 °F 30.11 in East 5.0 mph 13.0 mph 28 % 0.00 in 0.00 W/m2
02:35 61.3 °F 27.9 °F 30.11 in East 4.0 mph 15.0 mph 28 % 0.00 in 0.00 W/m2
02:40 61.3 °F 27.9 °F 30.11 in East 9.0 mph 15.0 mph 28 % 0.00 in 0.00 W/m2
02:45 61.3 °F 27.9 °F 30.11 in East 2.0 mph 13.0 mph 28 % 0.00 in 0.00 W/m2
02:50 61.3 °F 27.9 °F 30.11 in East 4.0 mph 13.0 mph 28 % 0.00 in 0.00 W/m2
02:55 61.3 °F 27.9 °F 30.11 in ESE 5.0 mph 13.0 mph 28 % 0.00 in 0.00 W/m2
03:00 61.3 °F 27.9 °F 30.11 in East 9.0 mph 13.0 mph 28 % 0.00 in 0.00 W/m2
03:05 61.3 °F 27.9 °F 30.11 in East 4.0 mph 12.0 mph 28 % 0.00 in 0.00 W/m2
03:10 61.3 °F 27.9 °F 30.11 in ESE 6.0 mph 14.0 mph 28 % 0.00 in 0.00 W/m2
03:15 61.3 °F 27.1 °F 30.11 in ESE 1.0 mph 12.0 mph 27 % 0.00 in 0.00 W/m2
03:20 61.3 °F 27.9 °F 30.11 in ESE 2.0 mph 13.0 mph 28 % 0.00 in 0.00 W/m2
03:25 61.3 °F 27.9 °F 30.11 in ESE 7.0 mph 14.0 mph 28 % 0.00 in 0.00 W/m2
03:30 61.2 °F 27.9 °F 30.11 in ESE 6.0 mph 15.0 mph 28 % 0.00 in 0.00 W/m2
03:35 61.2 °F 27.9 °F 30.11 in ESE 11.0 mph 13.0 mph 28 % 0.00 in 0.00 W/m2
03:40 61.2 °F 27.9 °F 30.11 in ESE 2.0 mph 13.0 mph 28 % 0.00 in 0.00 W/m2
03:45 61.1 °F 27.8 °F 30.11 in Calm     28 % 0.00 in 0.00 W/m2
03:50 61.1 °F 27.8 °F 30.10 in ESE 2.0 mph 14.0 mph 28 % 0.00 in 0.00 W/m2
03:55 61.0 °F 27.7 °F 30.10 in ESE 8.0 mph 15.0 mph 28 % 0.00 in 0.00 W/m2
04:00 60.9 °F 27.6 °F 30.11 in ESE 4.0 mph 13.0 mph 28 % 0.00 in 0.00 W/m2
04:05 60.9 °F 27.6 °F 30.10 in East 5.0 mph 11.0 mph 28 % 0.00 in 0.00 W/m2
04:10 60.8 °F 27.5 °F 30.10 in ESE 7.0 mph 14.0 mph 28 % 0.00 in 0.00 W/m2
04:15 60.7 °F 27.4 °F 30.10 in ESE 4.0 mph 13.0 mph 28 % 0.00 in 0.00 W/m2
04:20 60.5 °F 27.3 °F 30.10 in ESE 7.0 mph 14.0 mph 28 % 0.00 in 0.00 W/m2
04:25 60.4 °F 28.0 °F 30.10 in ESE 6.0 mph 11.0 mph 29 % 0.00 in 0.00 W/m2
04:30 60.3 °F 27.9 °F 30.10 in ESE 1.0 mph 12.0 mph 29 % 0.00 in 0.00 W/m2
04:35 60.2 °F 27.9 °F 30.10 in ESE 5.0 mph 12.0 mph 29 % 0.00 in 0.00 W/m2
04:40 60.0 °F 27.7 °F 30.10 in ESE 8.0 mph 13.0 mph 29 % 0.00 in 0.00 W/m2
04:45 59.9 °F 27.6 °F 30.10 in ESE 1.0 mph 12.0 mph 29 % 0.00 in 0.00 W/m2
04:50 59.8 °F 27.5 °F 30.10 in ESE 7.0 mph 12.0 mph 29 % 0.00 in 0.00 W/m2
04:55 59.8 °F 27.5 °F 30.10 in Calm   13.0 mph 29 % 0.00 in 0.00 W/m2
05:00 59.7 °F 27.4 °F 30.10 in ESE 4.0 mph 11.0 mph 29 % 0.00 in 0.00 W/m2
05:01 59.7 °F 27.4 °F 30.10 in ESE 2.0 mph 9.0 mph 29 % 0.00 in 0.00 W/m2
05:06 59.7 °F 27.4 °F 30.10 in ESE 2.0 mph 11.0 mph 29 % 0.00 in 0.00 W/m2
05:11 59.7 °F 27.4 °F 30.10 in East 11.0 mph 12.0 mph 29 % 0.00 in 0.00 W/m2
05:16 59.7 °F 27.4 °F 30.10 in East 12.0 mph 12.0 mph 29 % 0.00 in 0.00 W/m2
05:21 59.7 °F 27.4 °F 30.10 in ESE 5.0 mph 11.0 mph 29 % 0.00 in 0.00 W/m2
05:26 59.7 °F 27.4 °F 30.10 in ESE 2.0 mph 8.0 mph 29 % 0.00 in 0.00 W/m2
05:31 59.7 °F 27.4 °F 30.10 in ESE 7.0 mph 8.0 mph 29 % 0.00 in 0.00 W/m2
05:36 59.7 °F 28.2 °F 30.10 in ESE 12.0 mph 12.0 mph 30 % 0.00 in 0.00 W/m2
05:41 59.7 °F 27.4 °F 30.10 in ESE 9.0 mph 9.0 mph 29 % 0.00 in 0.00 W/m2
05:46 59.7 °F 27.4 °F 30.10 in ESE 1.0 mph 9.0 mph 29 % 0.00 in 0.00 W/m2
05:51 59.7 °F 27.4 °F 30.10 in East 8.0 mph 11.0 mph 29 % 0.00 in 0.00 W/m2
05:56 59.6 °F 27.3 °F 30.10 in East 2.0 mph 12.0 mph 29 % 0.00 in 0.00 W/m2
06:01 59.6 °F 27.3 °F 30.10 in Calm   6.0 mph 29 % 0.00 in 0.00 W/m2
06:06 59.6 °F 28.1 °F 30.10 in ESE 6.0 mph 7.0 mph 30 % 0.00 in 0.00 W/m2
06:11 59.5 °F 27.2 °F 30.10 in East 7.0 mph 12.0 mph 29 % 0.00 in 0.00 W/m2
06:16 59.5 °F 27.2 °F 30.10 in ESE 5.0 mph 12.0 mph 29 % 0.00 in 0.00 W/m2
06:21 59.4 °F 28.0 °F 30.10 in East 5.0 mph 11.0 mph 30 % 0.00 in 0.00 W/m2
06:26 59.4 °F 28.0 °F 30.10 in Calm   8.0 mph 30 % 0.00 in 0.00 W/m2
06:31 59.4 °F 28.0 °F 30.10 in East 5.0 mph 11.0 mph 30 % 0.00 in 0.00 W/m2
06:36 59.4 °F 28.0 °F 30.10 in ESE 2.0 mph 11.0 mph 30 % 0.00 in 0.00 W/m2
06:41 59.4 °F 28.0 °F 30.09 in East 6.0 mph 12.0 mph 30 % 0.00 in 0.00 W/m2
06:46 59.4 °F 28.0 °F 30.10 in ESE 2.0 mph 13.0 mph 30 % 0.00 in 0.00 W/m2
06:52 59.3 °F 27.9 °F 30.10 in ESE 11.0 mph 12.0 mph 30 % 0.00 in 0.00 W/m2
06:57 59.3 °F 27.9 °F 30.10 in ESE 8.0 mph 12.0 mph 30 % 0.00 in 0.00 W/m2
07:02 59.3 °F 27.9 °F 30.10 in East 8.0 mph 9.0 mph 30 % 0.00 in 0.00 W/m2
07:07 59.3 °F 27.9 °F 30.10 in ESE 7.0 mph 9.0 mph 30 % 0.00 in 0.00 W/m2
07:12 59.3 °F 27.9 °F 30.10 in ESE 8.0 mph 13.0 mph 30 % 0.00 in 0.00 W/m2
07:17 59.3 °F 27.9 °F 30.10 in ESE 1.0 mph 8.0 mph 30 % 0.00 in 5.00 W/m2
07:22 59.3 °F 27.9 °F 30.11 in ESE 8.0 mph 11.0 mph 30 % 0.00 in 7.00 W/m2
07:27 59.3 °F 27.9 °F 30.11 in ESE 4.0 mph 13.0 mph 30 % 0.00 in 9.00 W/m2
07:30 59.2 °F 27.8 °F 30.11 in East 7.0 mph 14.0 mph 30 % 0.00 in 9.00 W/m2
07:35 59.3 °F 27.9 °F 30.11 in East 5.0 mph 13.0 mph 30 % 0.00 in 12.00 W/m2
07:40 59.2 °F 27.8 °F 30.11 in East 2.0 mph 9.0 mph 30 % 0.00 in 21.00 W/m2
07:45 59.2 °F 27.8 °F 30.12 in Calm   9.0 mph 30 % 0.00 in 30.00 W/m2
07:50 59.2 °F 27.8 °F 30.12 in ESE 5.0 mph 8.0 mph 30 % 0.00 in 35.00 W/m2
07:55 59.2 °F 27.8 °F 30.12 in ESE 6.0 mph 9.0 mph 30 % 0.00 in 67.00 W/m2
08:00 59.2 °F 28.6 °F 30.12 in Calm   9.0 mph 31 % 0.00 in 91.00 W/m2
08:05 59.2 °F 28.6 °F 30.12 in ESE 2.0 mph 8.0 mph 31 % 0.00 in 118.00 W/m2
08:10 59.2 °F 28.6 °F 30.12 in ESE 5.0 mph 11.0 mph 31 % 0.00 in 63.00 W/m2
08:15 59.2 °F 29.4 °F 30.12 in ESE 4.0 mph 9.0 mph 32 % 0.00 in 144.00 W/m2
08:20 59.2 °F 29.4 °F 30.13 in East 1.0 mph 11.0 mph 32 % 0.00 in 160.00 W/m2
08:25 59.3 °F 29.5 °F 30.13 in ESE 2.0 mph 8.0 mph 32 % 0.00 in 174.00 W/m2
08:30 59.4 °F 30.3 °F 30.13 in Calm   8.0 mph 33 % 0.00 in 197.00 W/m2
08:35 59.5 °F 30.4 °F 30.13 in Calm   7.0 mph 33 % 0.00 in 221.00 W/m2
08:40 59.6 °F 30.5 °F 30.13 in Calm   9.0 mph 33 % 0.00 in 239.00 W/m2
08:45 59.7 °F 31.3 °F 30.13 in ESE 7.0 mph 7.0 mph 34 % 0.00 in 246.00 W/m2
08:50 59.8 °F 31.4 °F 30.13 in Calm   6.0 mph 34 % 0.00 in 84.00 W/m2
08:55 60.0 °F 31.6 °F 30.14 in ESE 5.0 mph 8.0 mph 34 % 0.00 in 285.00 W/m2
09:00 60.1 °F 31.7 °F 30.13 in ESE 4.0 mph 6.0 mph 34 % 0.00 in 295.00 W/m2
09:05 60.2 °F 32.5 °F 30.13 in Calm   5.0 mph 35 % 0.00 in 278.00 W/m2
09:10 60.4 °F 32.7 °F 30.13 in Calm   5.0 mph 35 % 0.00 in 322.00 W/m2
09:15 60.5 °F 32.7 °F 30.13 in Calm   5.0 mph 35 % 0.00 in 336.00 W/m2
09:20 60.7 °F 33.6 °F 30.14 in Calm   5.0 mph 36 % 0.00 in 352.00 W/m2
09:25 60.9 °F 33.8 °F 30.14 in Calm   2.0 mph 36 % 0.00 in 369.00 W/m2
09:30 61.1 °F 34.0 °F 30.14 in Calm   4.0 mph 36 % 0.00 in 387.00 W/m2
09:32 61.1 °F 34.0 °F 30.13 in Calm   1.0 mph 36 % 0.00 in 390.00 W/m2
09:37 61.3 °F 34.8 °F 30.14 in Calm   4.0 mph 37 % 0.00 in 396.00 W/m2
09:42 61.6 °F 34.4 °F 30.13 in Calm   4.0 mph 36 % 0.00 in 385.00 W/m2
09:47 62.0 °F 35.5 °F 30.13 in Calm   1.0 mph 37 % 0.00 in 439.00 W/m2
09:52 62.3 °F 35.0 °F 30.13 in Calm   1.0 mph 36 % 0.00 in 455.00 W/m2
09:57 62.6 °F 33.9 °F 30.13 in Calm     34 % 0.00 in 466.00 W/m2
10:02 62.9 °F 34.1 °F 30.13 in Calm   4.0 mph 34 % 0.00 in 475.00 W/m2
10:07 63.3 °F 33.7 °F 30.13 in Calm   1.0 mph 33 % 0.00 in 482.00 W/m2
10:12 63.6 °F 34.0 °F 30.13 in ESE 1.0 mph 1.0 mph 33 % 0.00 in 464.00 W/m2
10:17 64.0 °F 34.3 °F 30.13 in Calm   1.0 mph 33 % 0.00 in 476.00 W/m2
10:22 64.4 °F 34.7 °F 30.13 in Calm   1.0 mph 33 % 0.00 in 499.00 W/m2
10:27 65.0 °F 33.7 °F 30.13 in Calm   1.0 mph 31 % 0.00 in 494.00 W/m2
10:32 65.4 °F 31.5 °F 30.13 in Calm   1.0 mph 28 % 0.00 in 473.00 W/m2
10:37 65.8 °F 30.9 °F 30.13 in Calm   2.0 mph 27 % 0.00 in 448.00 W/m2
10:42 66.3 °F 33.1 °F 30.13 in Calm     29 % 0.00 in 527.00 W/m2
10:47 66.8 °F 32.7 °F 30.13 in Calm     28 % 0.00 in 489.00 W/m2
10:52 67.3 °F 32.2 °F 30.13 in Calm     27 % 0.00 in 506.00 W/m2
10:57 67.9 °F 30.8 °F 30.13 in Calm     25 % 0.00 in 473.00 W/m2
11:02 68.5 °F 33.2 °F 30.13 in Calm     27 % 0.00 in 476.00 W/m2
11:07 68.9 °F 31.7 °F 30.13 in Calm     25 % 0.00 in 464.00 W/m2
11:12 69.3 °F 33.0 °F 30.13 in Calm     26 % 0.00 in 475.00 W/m2
11:14 69.6 °F 34.2 °F 30.13 in Calm     27 % 0.00 in 427.00 W/m2
11:19 69.9 °F 32.5 °F 30.13 in Calm     25 % 0.00 in 673.00 W/m2
11:24 70.4 °F 32.9 °F 30.13 in ESE 5.0 mph 5.0 mph 25 % 0.00 in 652.00 W/m2
11:29 71.1 °F 31.5 °F 30.13 in Calm   4.0 mph 23 % 0.00 in 643.00 W/m2
11:34 71.6 °F 30.8 °F 30.13 in East 4.0 mph 4.0 mph 22 % 0.00 in 707.00 W/m2
11:39 72.1 °F 31.2 °F 30.13 in Calm   2.0 mph 22 % 0.00 in 615.00 W/m2
11:44 72.4 °F 31.4 °F 30.13 in NNE 2.0 mph 4.0 mph 22 % 0.00 in 536.00 W/m2
11:49 72.6 °F 31.6 °F 30.13 in Calm   4.0 mph 22 % 0.00 in 615.00 W/m2
11:54 72.7 °F 30.5 °F 30.12 in NNW 1.0 mph 4.0 mph 21 % 0.00 in 605.00 W/m2
11:59 72.8 °F 26.9 °F 30.12 in NNW 1.0 mph 5.0 mph 18 % 0.00 in 501.00 W/m2
12:04 72.8 °F 24.0 °F 30.12 in Calm   4.0 mph 16 % 0.00 in 534.00 W/m2
12:09 72.9 °F 22.6 °F 30.12 in NNW 2.0 mph 6.0 mph 15 % 0.00 in 399.00 W/m2
12:14 72.9 °F 25.6 °F 30.13 in Calm   4.0 mph 17 % 0.00 in 388.00 W/m2
12:19 72.8 °F 22.5 °F 30.12 in Calm   2.0 mph 15 % 0.00 in 383.00 W/m2
12:24 72.7 °F 24.0 °F 30.12 in Calm   1.0 mph 16 % 0.00 in 387.00 W/m2
12:30 72.7 °F 25.4 °F 30.12 in Calm   1.0 mph 17 % 0.00 in 585.00 W/m2
12:35 72.8 °F 26.9 °F 30.12 in Calm   2.0 mph 18 % 0.00 in 550.00 W/m2
12:40 72.8 °F 28.2 °F 30.11 in NW 2.0 mph 4.0 mph 19 % 0.00 in 557.00 W/m2
12:45 73.0 °F 29.6 °F 30.11 in NW 1.0 mph 3.0 mph 20 % 0.00 in 534.00 W/m2
12:50 73.1 °F 30.9 °F 30.11 in NW 2.0 mph 4.0 mph 21 % 0.00 in 668.00 W/m2
12:51 73.1 °F 29.7 °F 30.11 in NW 2.0 mph 4.0 mph 20 % 0.00 in 675.00 W/m2
12:56 73.3 °F 31.0 °F 30.11 in Calm   1.0 mph 21 % 0.00 in 631.00 W/m2
13:02 73.5 °F 31.2 °F 30.11 in Calm   2.0 mph 21 % 0.00 in 517.00 W/m2
13:07 73.7 °F 31.4 °F 30.11 in Calm     21 % 0.00 in 427.00 W/m2
13:12 73.8 °F 31.5 °F 30.11 in Calm   2.0 mph 21 % 0.00 in 459.00 W/m2
13:17 73.9 °F 30.3 °F 30.11 in Calm   1.0 mph 20 % 0.00 in 366.00 W/m2
13:22 73.9 °F 30.3 °F 30.11 in Calm   3.0 mph 20 % 0.00 in 334.00 W/m2
13:27 73.9 °F 32.7 °F 30.11 in Calm   3.0 mph 22 % 0.00 in 366.00 W/m2
13:32 73.8 °F 32.6 °F 30.10 in Calm     22 % 0.00 in 422.00 W/m2
13:37 73.8 °F 33.7 °F 30.10 in Calm     23 % 0.00 in 350.00 W/m2
13:42 73.7 °F 33.6 °F 30.09 in Calm     23 % 0.00 in 534.00 W/m2
13:47 73.7 °F 34.7 °F 30.09 in NW 2.0 mph 2.0 mph 24 % 0.00 in 633.00 W/m2
13:52 73.9 °F 33.8 °F 30.09 in NW 3.0 mph 3.0 mph 23 % 0.00 in 636.00 W/m2
13:57 74.0 °F 36.0 °F 30.09 in NW 2.0 mph 7.0 mph 25 % 0.00 in 550.00 W/m2
14:02 74.2 °F 37.1 °F 30.09 in WNW 3.0 mph 6.0 mph 26 % 0.00 in 691.00 W/m2
14:07 74.3 °F 36.2 °F 30.08 in NW 3.0 mph 6.0 mph 25 % 0.00 in 564.00 W/m2
14:12 74.4 °F 35.3 °F 30.08 in Calm     24 % 0.00 in 487.00 W/m2
14:17 74.3 °F 36.2 °F 30.08 in NW 3.0 mph 4.0 mph 25 % 0.00 in 540.00 W/m2
14:22 74.3 °F 36.2 °F 30.08 in NW 1.0 mph 6.0 mph 25 % 0.00 in 531.00 W/m2
14:27 74.3 °F 35.2 °F 30.08 in NW 2.0 mph 4.0 mph 24 % 0.00 in 415.00 W/m2
14:32 74.2 °F 35.1 °F 30.08 in Calm   2.0 mph 24 % 0.00 in 606.00 W/m2
14:37 74.3 °F 34.1 °F 30.08 in Calm   4.0 mph 23 % 0.00 in 603.00 W/m2
14:42 74.4 °F 34.2 °F 30.08 in WNW 3.0 mph 5.0 mph 23 % 0.00 in 545.00 W/m2
14:47 74.4 °F 32.0 °F 30.08 in Calm   1.0 mph 21 % 0.00 in 476.00 W/m2
14:52 74.5 °F 32.0 °F 30.08 in Calm     21 % 0.00 in 577.00 W/m2
14:57 74.6 °F 32.1 °F 30.08 in Calm   1.0 mph 21 % 0.00 in 302.00 W/m2
15:02 74.6 °F 30.9 °F 30.08 in Calm   1.0 mph 20 % 0.00 in 313.00 W/m2
15:07 74.6 °F 29.7 °F 30.08 in Calm     19 % 0.00 in 279.00 W/m2
15:12 74.5 °F 30.8 °F 30.08 in Calm     20 % 0.00 in 302.00 W/m2
15:17 74.4 °F 29.5 °F 30.08 in Calm     19 % 0.00 in 244.00 W/m2
15:22 74.4 °F 30.8 °F 30.08 in Calm     20 % 0.00 in 345.00 W/m2
15:27 74.4 °F 29.5 °F 30.08 in Calm   3.0 mph 19 % 0.00 in 352.00 W/m2
15:32 74.3 °F 31.9 °F 30.08 in Calm   3.0 mph 21 % 0.00 in 352.00 W/m2
15:37 74.3 °F 31.9 °F 30.07 in Calm   6.0 mph 21 % 0.00 in 295.00 W/m2
15:42 74.4 °F 30.8 °F 30.07 in Calm     20 % 0.00 in 209.00 W/m2
15:47 74.4 °F 32.0 °F 30.08 in Calm   2.0 mph 21 % 0.00 in 290.00 W/m2
15:52 74.4 °F 32.0 °F 30.08 in Calm     21 % 0.00 in 309.00 W/m2
15:57 74.3 °F 31.9 °F 30.08 in Calm     21 % 0.00 in 308.00 W/m2
16:02 74.3 °F 31.9 °F 30.08 in Calm   5.0 mph 21 % 0.00 in 290.00 W/m2
16:07 74.3 °F 33.0 °F 30.08 in Calm   6.0 mph 22 % 0.00 in 236.00 W/m2
16:12 74.2 °F 33.0 °F 30.08 in West 1.0 mph 6.0 mph 22 % 0.00 in 313.00 W/m2
16:17 74.1 °F 32.9 °F 30.08 in Calm   2.0 mph 22 % 0.00 in 287.00 W/m2
16:23 74.0 °F 32.8 °F 30.07 in Calm   1.0 mph 22 % 0.00 in 330.00 W/m2
16:28 73.9 °F 32.7 °F 30.07 in Calm   1.0 mph 22 % 0.00 in 260.00 W/m2
16:33 73.8 °F 33.7 °F 30.07 in Calm   5.0 mph 23 % 0.00 in 320.00 W/m2
16:38 73.7 °F 33.6 °F 30.08 in West 2.0 mph 4.0 mph 23 % 0.00 in 278.00 W/m2
16:43 73.7 °F 33.6 °F 30.07 in Calm     23 % 0.00 in 278.00 W/m2
16:48 73.6 °F 35.6 °F 30.07 in Calm     25 % 0.00 in 253.00 W/m2
16:53 73.3 °F 34.4 °F 30.07 in Calm     24 % 0.00 in 227.00 W/m2
16:58 73.2 °F 35.3 °F 30.07 in Calm   4.0 mph 25 % 0.00 in 218.00 W/m2
17:03 72.9 °F 35.0 °F 30.07 in Calm     25 % 0.00 in 199.00 W/m2
17:08 72.7 °F 34.9 °F 30.06 in Calm     25 % 0.00 in 178.00 W/m2
17:13 72.5 °F 34.7 °F 30.07 in Calm   2.0 mph 25 % 0.00 in 153.00 W/m2
17:18 72.3 °F 35.5 °F 30.06 in Calm     26 % 0.00 in 137.00 W/m2
17:23 72.2 °F 36.4 °F 30.06 in Calm     27 % 0.00 in 118.00 W/m2
17:28 72.1 °F 36.3 °F 30.06 in Calm     27 % 0.00 in 105.00 W/m2
17:33 72.0 °F 36.2 °F 30.06 in Calm     27 % 0.00 in 88.00 W/m2
17:38 71.7 °F 36.9 °F 30.06 in Calm     28 % 0.00 in 72.00 W/m2
17:43 71.5 °F 36.7 °F 30.06 in Calm     28 % 0.00 in 58.00 W/m2
17:48 71.0 °F 36.3 °F 30.06 in Calm     28 % 0.00 in 46.00 W/m2
17:53 70.4 °F 36.7 °F 30.06 in Calm   1.0 mph 29 % 0.00 in 33.00 W/m2
17:58 69.9 °F 37.1 °F 30.06 in Calm     30 % 0.00 in 21.00 W/m2
18:03 69.5 °F 36.7 °F 30.06 in Calm     30 % 0.00 in 14.00 W/m2
18:08 68.8 °F 37.0 °F 30.06 in Calm     31 % 0.00 in 9.00 W/m2
18:14 68.3 °F 36.5 °F 30.06 in Calm     31 % 0.00 in 7.00 W/m2
18:19 67.8 °F 36.1 °F 30.07 in Calm     31 % 0.00 in 5.00 W/m2
18:24 67.3 °F 36.5 °F 30.06 in Calm     32 % 0.00 in 0.00 W/m2
18:29 66.6 °F 35.8 °F 30.07 in Calm   1.0 mph 32 % 0.00 in 0.00 W/m2
18:30 66.4 °F 35.7 °F 30.06 in Calm   1.0 mph 32 % 0.00 in 0.00 W/m2
18:35 65.8 °F 35.2 °F 30.06 in Calm     32 % 0.00 in 0.00 W/m2
18:40 65.2 °F 34.6 °F 30.07 in Calm     32 % 0.00 in 0.00 W/m2
18:45 64.7 °F 35.0 °F 30.07 in Calm     33 % 0.00 in 0.00 W/m2
18:50 64.3 °F 34.6 °F 30.07 in Calm     33 % 0.00 in 0.00 W/m2
18:55 63.9 °F 34.3 °F 30.07 in West 2.0 mph 4.0 mph 33 % 0.00 in 0.00 W/m2
19:00 63.5 °F 33.9 °F 30.07 in Calm   3.0 mph 33 % 0.00 in 0.00 W/m2
19:05 63.2 °F 33.6 °F 30.07 in Calm     33 % 0.00 in 0.00 W/m2
19:10 62.9 °F 33.4 °F 30.07 in West 2.0 mph 3.0 mph 33 % 0.00 in 0.00 W/m2
19:15 62.6 °F 33.1 °F 30.07 in Calm   3.0 mph 33 % 0.00 in 0.00 W/m2
19:20 62.3 °F 32.9 °F 30.08 in West 1.0 mph 3.0 mph 33 % 0.00 in 0.00 W/m2
19:25 62.2 °F 32.8 °F 30.08 in West 2.0 mph 3.0 mph 33 % 0.00 in 0.00 W/m2
19:30 62.0 °F 32.6 °F 30.08 in Calm   2.0 mph 33 % 0.00 in 0.00 W/m2
19:35 61.9 °F 31.7 °F 30.08 in Calm     32 % 0.00 in 0.00 W/m2
19:40 61.8 °F 31.6 °F 30.08 in Calm     32 % 0.00 in 0.00 W/m2
19:45 61.7 °F 32.3 °F 30.08 in Calm     33 % 0.00 in 0.00 W/m2
19:50 61.6 °F 32.2 °F 30.08 in Calm   3.0 mph 33 % 0.00 in 0.00 W/m2
19:55 61.5 °F 32.2 °F 30.08 in Calm     33 % 0.00 in 0.00 W/m2
20:00 61.4 °F 32.1 °F 30.08 in Calm     33 % 0.00 in 0.00 W/m2
20:03 61.3 °F 32.0 °F 30.08 in Calm     33 % 0.00 in 0.00 W/m2
20:08 61.3 °F 32.0 °F 30.08 in Calm   3.0 mph 33 % 0.00 in 0.00 W/m2
20:22 60.9 °F 31.6 °F 30.08 in West 2.0 mph 3.0 mph 33 % 0.00 in 0.00 W/m2
20:23 60.9 °F 31.6 °F 30.08 in Calm   3.0 mph 33 % 0.00 in 0.00 W/m2
20:28 60.8 °F 31.5 °F 30.08 in WSW 3.0 mph 6.0 mph 33 % 0.00 in 0.00 W/m2
20:32 60.8 °F 32.3 °F 30.08 in SW 2.0 mph 5.0 mph 34 % 0.00 in 0.00 W/m2
20:37 60.7 °F 32.2 °F 30.08 in Calm   6.0 mph 34 % 0.00 in 0.00 W/m2
20:42 60.7 °F 32.9 °F 30.08 in Calm   6.0 mph 35 % 0.00 in 0.00 W/m2
20:44 60.7 °F 32.9 °F 30.08 in ESE 5.0 mph 8.0 mph 35 % 0.00 in 0.00 W/m2
20:54 60.6 °F 33.5 °F 30.07 in ESE 7.0 mph 8.0 mph 36 % 0.00 in 0.00 W/m2
20:59 60.6 °F 33.5 °F 30.07 in Calm   8.0 mph 36 % 0.00 in 0.00 W/m2
21:04 60.6 °F 33.5 °F 30.07 in ESE 2.0 mph 8.0 mph 36 % 0.00 in 0.00 W/m2
21:09 60.6 °F 33.5 °F 30.07 in ESE 2.0 mph 11.0 mph 36 % 0.00 in 0.00 W/m2
21:14 60.6 °F 33.5 °F 30.07 in East 8.0 mph 12.0 mph 36 % 0.00 in 0.00 W/m2
21:19 60.6 °F 33.5 °F 30.07 in East 2.0 mph 11.0 mph 36 % 0.00 in 0.00 W/m2
21:24 60.7 °F 33.6 °F 30.07 in East 2.0 mph 8.0 mph 36 % 0.00 in 0.00 W/m2
21:29 60.7 °F 33.6 °F 30.07 in East 5.0 mph 9.0 mph 36 % 0.00 in 0.00 W/m2
21:34 60.7 °F 33.6 °F 30.07 in East 4.0 mph 9.0 mph 36 % 0.00 in 0.00 W/m2
21:39 60.7 °F 33.6 °F 30.07 in East 6.0 mph 8.0 mph 36 % 0.00 in 0.00 W/m2
21:44 60.7 °F 33.6 °F 30.08 in East 2.0 mph 8.0 mph 36 % 0.00 in 0.00 W/m2
21:49 60.6 °F 33.5 °F 30.08 in East 4.0 mph 9.0 mph 36 % 0.00 in 0.00 W/m2
21:54 60.6 °F 33.5 °F 30.08 in East 4.0 mph 8.0 mph 36 % 0.00 in 0.00 W/m2
21:59 60.5 °F 33.4 °F 30.08 in East 4.0 mph 8.0 mph 36 % 0.00 in 0.00 W/m2
22:04 60.5 °F 32.7 °F 30.08 in East 4.0 mph 8.0 mph 35 % 0.00 in 0.00 W/m2
22:09 60.5 °F 33.4 °F 30.08 in Calm   7.0 mph 36 % 0.00 in 0.00 W/m2
22:14 60.4 °F 32.7 °F 30.08 in ESE 1.0 mph 7.0 mph 35 % 0.00 in 0.00 W/m2
22:19 60.4 °F 32.7 °F 30.08 in Calm   7.0 mph 35 % 0.00 in 0.00 W/m2
22:24 60.4 °F 32.7 °F 30.08 in Calm   8.0 mph 35 % 0.00 in 0.00 W/m2
22:29 60.3 °F 32.6 °F 30.08 in Calm   7.0 mph 35 % 0.00 in 0.00 W/m2
22:34 60.3 °F 32.6 °F 30.08 in Calm   6.0 mph 35 % 0.00 in 0.00 W/m2
22:39 60.3 °F 32.6 °F 30.08 in East 1.0 mph 11.0 mph 35 % 0.00 in 0.00 W/m2
22:44 60.2 °F 32.5 °F 30.08 in Calm   11.0 mph 35 % 0.00 in 0.00 W/m2
22:49 60.1 °F 32.4 °F 30.08 in East 2.0 mph 11.0 mph 35 % 0.00 in 0.00 W/m2
22:54 60.0 °F 32.3 °F 30.08 in East 6.0 mph 11.0 mph 35 % 0.00 in 0.00 W/m2
22:59 60.0 °F 32.3 °F 30.08 in ESE 9.0 mph 14.0 mph 35 % 0.00 in 0.00 W/m2
23:04 59.9 °F 31.5 °F 30.08 in ESE 4.0 mph 12.0 mph 34 % 0.00 in 0.00 W/m2
23:09 59.9 °F 31.5 °F 30.08 in East 6.0 mph 11.0 mph 34 % 0.00 in 0.00 W/m2
23:14 59.9 °F 31.5 °F 30.08 in East 6.0 mph 9.0 mph 34 % 0.00 in 0.00 W/m2
23:19 59.8 °F 31.4 °F 30.07 in East 7.0 mph 13.0 mph 34 % 0.00 in 0.00 W/m2
23:24 59.8 °F 31.4 °F 30.08 in East 7.0 mph 11.0 mph 34 % 0.00 in 0.00 W/m2
23:29 59.8 °F 31.4 °F 30.07 in ESE 5.0 mph 13.0 mph 34 % 0.00 in 0.00 W/m2
23:34 59.7 °F 31.3 °F 30.07 in ESE 9.0 mph 13.0 mph 34 % 0.00 in 0.00 W/m2
23:39 59.7 °F 31.3 °F 30.07 in East 7.0 mph 13.0 mph 34 % 0.00 in 0.00 W/m2
23:44 59.6 °F 31.2 °F 30.07 in East 4.0 mph 12.0 mph 34 % 0.00 in 0.00 W/m2
23:49 59.5 °F 30.4 °F 30.07 in East 8.0 mph 12.0 mph 33 % 0.00 in 0.00 W/m2
23:54 59.5 °F 30.4 °F 30.07 in ESE 4.0 mph 12.0 mph 33 % 0.00 in 0.00 W/m2
23:59 59.4 °F 30.3 °F 30.07 in East 6.0 mph 12.0 mph 33 % 0.00 in 0.00 W/m2
Juneau County Weather
Compliments of Weather Underground - 4.5 mb
 WU-history PHP script courtesy of   Juneau County Weather.
powered by Cumulus v1.9.3 (1059)
Ambient Weather VWS v14.00
Top Contact Website Map Copyright © 2007 - 2018 Foresthillweather.com Never base important decisions on this or any weather information obtained from the Internet